Theta_e
302 302 302 302 302 302 302 303 303 302 302 302 303 304 305 306 309 309 311 313 315 316 315 315 317 317 318 318 318 318 319 319 320 320 320 318 320 320 320 320 321 323 323 323 323 323 323 324 323 322 323 322 320 319 317 316 316 315 313 313 313 312
299 300 301 302 302 302 301 301 301 300 301 301 303 304 304 305 307 308 310 310 312 314 313 313 314 315 315 316 317 318 318 318 317 318 317 319 319 320 318 318 320 320 320 320 321 321 321 321 321 320 321 320 319 317 315 313 314 312 311 308 309 310
300 300 301 301 299 298 299 300 300 300 300 300 301 302 303 304 305 307 307 308 310 310 312 312 312 313 313 313 315 316 316 317 318 319 319 315 317 317 317 317 318 319 318 318 317 318 319 319 319 318 318 317 316 315 312 309 310 309 305 303 301 301
300 299 300 298 298 296 297 299 300 299 300 300 299 300 301 301 302 303 304 305 306 308 308 309 308 308 309 310 310 310 311 312 313 314 314 313 314 314 315 314 315 314 316 316 316 316 316 317 318 315 315 314 313 312 310 309 308 306 302 302 302 301
299 299 299 298 298 298 297 297 300 300 300 300 300 300 300 300 301 301 301 302 303 304 304 305 305 306 307 307 305 306 306 306 306 309 310 310 310 310 311 314 314 313 313 313 313 314 313 314 314 313 313 313 311 308 305 306 307 305 302 301 300 300
296 298 298 299 298 298 299 300 300 301 301 301 300 300 300 300 301 301 301 301 300 301 301 301 301 303 303 304 304 305 306 307 307 307 307 309 310 311 310 310 313 313 313 312 311 311 311 311 310 309 311 312 309 307 307 305 304 302 301 301 299 298
295 297 298 299 298 297 299 300 301 301 301 300 301 299 298 298 299 299 299 298 298 298 298 298 298 299 299 301 303 304 305 305 305 306 310 309 309 310 309 309 308 309 309 309 309 309 308 309 308 308 307 306 306 306 304 303 303 302 301 301 299 296
296 296 296 299 299 300 300 299 299 299 299 300 297 297 297 299 301 300 299 299 298 298 298 299 300 299 299 300 302 302 302 302 302 302 302 303 309 306 306 307 305 306 307 307 307 307 307 306 306 307 307 305 304 303 303 302 301 299 298 297 297 296
298 299 298 300 298 298 300 299 299 298 297 296 296 295 298 301 302 301 302 300 298 299 300 298 299 299 300 300 300 300 300 300 299 300 301 299 301 303 303 301 303 302 304 305 305 305 305 304 302 303 302 301 301 300 299 297 297 296 296 295 294 294
297 298 299 298 299 299 299 298 299 298 298 298 296 298 300 303 301 300 300 299 299 299 299 299 299 300 301 300 300 301 301 301 298 298 298 297 299 299 300 301 302 301 299 301 301 301 300 300 298 298 299 299 299 298 296 296 296 295 295 294 294 294
298 298 298 298 297 298 297 296 295 295 295 297 297 297 300 301 300 300 300 299 299 299 300 300 300 300 299 296 297 297 297 296 295 295 295 295 295 297 297 298 299 297 297 296 296 296 296 297 298 297 297 297 296 297 297 296 295 295 294 293 292 292
298 300 300 297 298 297 297 297 296 297 298 298 296 296 296 298 299 300 300 299 299 299 299 298 299 298 296 296 295 294 293 293 292 292 293 293 293 293 293 294 294 293 293 293 293 293 295 296 297 293 294 295 298 297 296 294 293 293 292 292 290 289
298 298 300 299 298 298 299 299 298 297 297 296 296 296 295 298 299 299 299 300 299 299 299 298 295 293 293 295 294 292 291 291 290 290 291 291 291 292 291 291 292 291 291 293 293 293 294 296 297 293 296 297 296 295 294 293 293 292 291 291 290 289
297 299 301 300 299 297 297 297 297 296 297 296 296 296 295 297 298 299 299 300 299 298 297 294 293 291 291 291 291 290 290 289 289 290 290 290 290 290 290 291 291 291 291 291 291 292 292 293 293 295 296 296 296 294 293 292 292 292 291 290 290 288
297 299 300 299 300 298 298 298 297 298 297 296 296 295 295 296 296 298 299 298 298 296 296 293 291 291 290 290 290 289 289 288 289 289 289 290 289 289 290 290 291 291 290 291 291 291 291 291 293 294 295 295 294 294 292 291 291 290 290 290 288 287
297 298 298 298 299 300 299 298 298 298 296 296 294 294 294 295 295 297 297 295 296 294 293 292 291 291 291 290 289 289 288 288 289 289 289 289 288 289 289 290 289 290 290 290 290 290 291 292 291 294 294 294 293 294 293 291 290 290 289 288 287 285
296 296 294 295 297 297 297 296 295 294 294 294 294 293 294 293 294 295 296 294 294 293 293 292 291 291 291 289 289 288 289 289 289 289 288 289 288 288 288 289 289 289 289 290 290 290 291 291 291 293 293 293 294 294 292 289 289 288 287 287 285 284
297 297 297 296 296 297 297 297 295 294 293 291 293 291 292 292 293 294 294 293 293 293 293 292 292 291 291 289 289 288 288 288 289 288 289 288 288 289 289 289 289 288 289 289 289 289 291 290 291 292 292 293 293 293 290 288 288 287 286 285 284 283
298 298 296 294 296 296 295 293 294 292 291 291 291 291 290 290 291 292 292 292 293 293 293 292 292 291 290 289 288 288 288 288 288 288 288 288 288 288 288 288 288 288 288 288 288 290 290 289 289 291 292 292 293 292 288 288 286 286 285 285 284 282
294 294 297 295 294 294 293 292 292 291 291 290 290 290 289 289 290 290 291 292 292 292 293 292 292 291 289 288 288 288 288 288 287 287 288 288 288 288 287 288 288 287 288 288 288 289 289 289 288 289 291 292 292 290 288 287 286 286 285 284 282 281
296 294 293 293 293 292 291 291 291 291 290 289 290 289 289 289 289 289 290 291 292 293 292 292 291 290 289 288 288 288 288 288 287 287 287 287 287 287 287 287 287 287 287 287 287 287 288 288 287 289 290 291 292 290 288 287 286 285 284 284 282 281
292 290 292 292 293 292 291 291 291 290 290 289 289 289 289 289 288 288 289 290 292 292 292 290 290 289 289 288 288 288 288 287 287 287 287 287 287 287 286 286 287 287 287 287 287 287 287 287 287 286 290 291 291 291 288 287 286 285 285 283 283 280
295 294 293 293 291 291 291 291 291 290 289 289 289 289 289 287 288 288 289 291 292 292 291 290 290 289 288 288 288 287 287 287 287 286 287 287 287 286 286 286 286 286 286 286 286 286 287 287 287 286 289 290 291 291 289 287 286 286 285 284 282 281
289 288 288 287 290 291 291 291 290 289 288 288 289 288 287 288 288 288 289 290 291 290 289 289 288 288 288 287 287 287 287 287 287 286 286 287 286 286 286 285 286 286 286 286 286 286 286 286 286 286 287 289 290 290 291 287 286 286 285 284 283 282
289 289 290 289 289 289 289 289 289 288 288 289 288 287 288 288 288 288 288 289 289 289 288 288 288 288 288 288 287 287 287 286 286 286 286 286 286 285 285 285 285 285 285 285 285 285 286 286 286 286 286 287 289 290 290 290 288 289 286 284 283 283
291 289 286 287 288 288 288 289 288 288 288 288 287 288 288 288 288 288 288 287 287 288 287 287 287 287 287 287 287 287 286 286 286 286 286 286 286 285 285 285 285 285 284 285 285 285 285 285 286 285 285 286 288 289 290 290 290 289 286 285 283 283
289 288 286 285 286 286 288 288 289 288 288 287 287 287 287 287 287 287 286 285 286 287 287 287 287 286 286 286 287 287 286 285 285 285 285 285 285 285 285 285 285 284 284 285 285 285 284 285 285 285 285 285 286 288 289 289 289 289 288 284 282 282
287 287 287 284 284 285 286 286 288 288 288 286 287 287 287 286 286 285 284 284 284 285 286 286 286 286 286 286 286 286 286 285 285 285 285 285 285 285 285 284 284 284 284 284 284 285 285 285 285 285 285 285 285 285 287 288 288 286 286 284 282 283
287 287 286 285 282 284 284 285 284 286 286 286 285 285 285 285 285 284 283 282 282 283 285 285 285 285 286 286 286 286 286 286 286 285 284 285 285 284 284 285 284 284 284 284 284 284 285 284 283 284 284 283 281 280 282 284 285 285 285 283 281 281
288 287 285 285 283 283 282 282 282 283 284 283 284 284 284 284 283 283 282 281 281 281 282 283 281 283 284 285 286 285 285 285 285 285 285 284 285 285 284 284 284 284 284 283 283 282 281 280 279 278 279 278 279 279 279 279 280 281 282 281 281 281
287 286 285 284 282 282 281 280 279 280 281 281 282 283 284 283 282 281 280 280 280 280 280 280 280 280 282 282 282 283 283 283 283 284 284 285 286 286 284 283 281 280 277 278 278 277 276 276 276 278 283 281 283 281 279 279 280 279 279 281 283 280
286 285 284 282 282 282 282 279 278 277 278 280 281 283 283 282 281 280 279 280 280 280 280 280 278 279 279 279 279 278 276 280 282 282 279 277 282 283 284 283 277 277 275 276 276 278 278 277 276 283 286 286 286 286 286 284 284 284 281 283 285 280
284 284 282 282 282 282 281 278 276 277 277 279 280 282 281 281 281 280 279 279 279 280 279 279 279 279 279 279 278 278 278 275 277 283 283 282 281 282 283 284 285 284 283 278 275 278 284 284 285 285 286 287 287 287 287 286 286 286 285 285 281 277
283 282 281 281 281 280 279 277 275 276 276 278 280 281 281 281 281 280 279 279 279 279 279 278 278 278 278 277 276 278 277 277 276 276 282 283 283 283 283 283 283 283 283 283 281 278 276 282 284 285 285 285 286 286 286 286 286 286 286 285 284 277
283 281 281 280 279 278 276 275 273 272 273 276 278 280 281 280 281 280 279 278 278 278 278 278 278 277 277 277 277 277 277 277 276 277 275 278 282 283 283 283 283 282 282 283 283 284 283 282 283 284 284 285 285 286 286 286 286 286 286 286 281 276
280 280 279 278 277 276 274 273 271 270 272 274 276 277 277 278 279 279 278 278 278 278 277 277 277 277 276 276 276 276 276 275 276 275 275 274 274 275 279 282 282 282 283 283 283 283 283 283 283 283 284 284 285 285 285 285 284 286 286 284 279 277
278 278 277 276 275 274 272 270 269 268 270 273 275 276 276 276 276 277 276 275 276 276 276 276 275 275 275 275 275 274 274 276 274 274 273 273 273 273 273 274 275 280 283 279 281 282 283 283 283 283 283 283 283 283 284 284 280 279 280 281 281 279
277 276 275 275 273 272 271 269 267 268 271 273 275 276 276 276 276 276 275 275 276 276 275 275 276 274 275 274 273 274 274 274 273 273 273 273 273 272 272 273 274 275 280 282 281 282 282 282 282 282 283 283 283 283 283 276 275 274 276 277 278 279
Wind_Speed
6 6 5 4 4 5 5 4 5 4 4 5 5 5 5 6 5 5 5 5 5 5 6 6 6 6 6 6 6 5 6 6 6 6 6 4 6 7 7 7 7 8 8 8 8 8 9 9 8 8 9 9 8 8 7 6 7 8 8 7 7 6
5 6 6 6 6 6 5 5 4 4 3 3 2 2 3 4 5 4 5 5 5 5 5 5 6 6 6 6 6 8 7 6 5 5 5 7 6 6 6 6 7 7 8 8 9 8 8 9 8 8 9 9 9 8 7 7 8 7 8 7 7 7
5 5 5 5 5 4 4 4 4 4 3 3 1 2 2 2 3 3 4 4 5 5 6 7 6 6 5 5 5 6 6 6 6 5 4 4 5 4 5 5 6 6 7 8 8 8 9 9 9 8 9 9 9 9 8 8 9 9 6 7 5 4
5 5 5 4 5 4 4 3 4 4 4 4 4 4 4 5 4 4 4 4 4 5 5 5 4 4 3 3 4 4 4 3 2 2 1 3 2 3 3 3 3 4 5 6 7 7 8 9 10 8 8 9 9 9 8 9 10 8 6 6 7 6
6 6 6 5 5 5 5 5 5 5 5 5 5 4 4 4 4 4 4 3 3 3 2 2 3 2 3 3 4 4 4 4 4 2 2 3 3 3 4 5 6 5 5 5 6 7 8 8 8 8 9 9 10 9 7 7 9 11 11 10 9 9
5 5 5 6 5 6 7 6 5 5 5 6 5 5 5 4 2 2 3 2 2 2 2 2 2 2 3 4 4 4 4 4 4 4 4 4 4 4 4 4 5 6 8 9 8 8 8 8 7 7 8 9 8 9 12 12 11 10 10 10 9 8
5 5 5 6 6 5 6 6 6 6 6 5 6 5 4 3 2 1 1 1 1 1 1 2 1 1 2 3 3 4 4 4 4 4 5 4 5 5 6 6 5 6 6 7 8 8 7 8 7 7 7 6 7 10 9 8 9 11 12 12 12 12
5 5 6 6 6 7 7 6 6 6 5 6 5 5 4 3 2 2 2 2 2 2 2 2 2 3 3 2 3 4 4 4 3 4 3 4 5 5 5 5 5 5 6 6 7 7 7 7 7 8 9 9 8 7 8 9 9 9 8 8 9 11
6 7 6 6 6 6 7 7 7 6 5 4 5 4 4 4 4 4 4 3 3 4 4 3 3 3 4 4 4 3 4 4 4 3 4 3 4 4 4 4 4 4 5 6 5 5 6 6 5 5 5 5 6 7 7 7 7 8 7 7 7 6
6 6 6 6 7 6 6 6 6 6 5 6 5 6 5 5 5 5 4 4 4 5 4 4 4 4 5 4 5 6 5 5 4 4 3 2 3 4 4 4 5 5 4 4 5 5 4 4 4 4 4 4 5 6 6 6 7 7 7 7 8 10
7 7 7 7 6 6 6 5 5 4 5 5 6 7 7 6 5 5 5 5 5 5 5 4 3 4 3 3 2 3 3 3 3 2 1 1 2 2 2 1 2 2 2 0 1 2 2 4 5 5 6 7 6 6 7 8 9 10 9 7 6 6
7 7 7 6 8 7 6 5 6 6 7 7 6 6 5 6 6 5 5 6 5 5 4 4 3 3 2 1 2 2 1 1 0 0 0 1 0 0 0 1 1 2 3 3 2 3 4 5 5 7 9 8 7 7 7 6 5 6 7 8 7 6
7 6 7 8 8 9 9 8 7 7 6 6 6 6 6 7 6 6 6 6 5 5 5 4 3 2 1 0 0 0 0 0 1 0 0 0 0 1 1 1 2 3 3 4 4 4 4 4 5 9 11 12 12 8 7 8 7 6 6 8 9 9
8 8 9 9 9 8 7 7 7 7 8 7 8 7 7 7 7 7 7 6 4 4 4 4 3 2 1 1 1 1 1 1 1 0 0 0 0 0 0 1 2 2 2 3 3 4 4 4 5 9 10 10 11 10 7 6 8 8 7 8 8 8
11 11 10 8 8 9 9 9 8 9 8 9 8 8 8 7 7 6 6 5 5 5 6 5 4 3 3 2 2 2 2 2 1 1 1 0 0 1 1 1 1 1 1 2 3 4 4 3 5 9 10 10 11 10 8 5 6 7 8 8 8 8
8 9 10 11 10 10 8 9 10 9 8 8 7 8 7 7 6 6 5 5 6 6 6 6 6 5 5 4 4 4 3 2 2 1 1 1 1 1 1 1 1 1 2 2 3 3 2 3 3 8 9 9 11 11 9 6 7 6 7 7 8 7
8 8 6 7 8 7 7 7 6 6 6 7 8 7 8 7 7 6 6 6 6 6 7 7 6 6 6 5 5 5 5 4 3 2 2 3 3 2 2 2 2 1 1 2 1 1 2 2 3 7 8 8 9 9 7 3 3 3 4 5 6 7
12 11 12 8 7 8 8 9 7 8 7 6 8 8 7 8 7 7 6 7 7 7 7 7 6 6 6 6 5 5 5 4 5 4 3 3 2 2 2 1 2 2 2 1 2 2 4 2 5 7 7 8 7 7 4 3 4 5 5 5 6 6
12 12 7 7 9 9 9 6 7 7 7 7 7 8 7 7 7 8 8 7 6 6 6 6 6 5 5 6 5 4 4 4 4 3 3 3 3 2 2 2 1 1 2 2 2 3 4 2 4 7 8 8 9 7 3 4 3 4 6 6 5 5
7 7 10 11 10 9 7 8 9 9 8 8 7 8 7 7 8 7 7 6 6 6 7 7 6 6 5 5 5 4 3 3 3 3 3 4 4 3 2 2 2 1 2 2 2 1 2 1 1 5 6 8 9 8 5 3 3 4 4 4 3 3
11 11 8 9 10 8 8 9 10 10 9 9 8 7 8 9 8 8 8 7 6 6 7 7 7 6 6 5 5 5 5 4 4 3 3 2 3 2 2 2 2 1 1 2 2 2 2 2 2 6 7 8 9 8 5 4 4 5 4 3 4 4
6 6 9 11 13 9 10 10 9 9 10 9 7 8 10 10 7 6 6 7 7 7 6 5 6 6 7 6 5 4 4 3 4 3 3 3 3 3 2 2 2 1 0 0 0 1 1 2 1 3 8 9 10 11 6 3 4 6 5 4 5 6
12 14 15 13 9 10 10 10 10 9 8 8 8 11 9 6 7 7 7 7 7 7 7 5 6 7 5 6 6 5 4 4 4 4 4 3 3 3 2 2 1 1 0 0 0 0 1 1 2 2 6 8 9 10 9 4 5 4 4 5 6 6
7 6 5 6 11 11 11 11 11 9 8 8 10 8 6 7 8 8 8 8 8 7 6 6 5 6 6 5 6 6 5 4 5 5 5 4 4 3 3 2 1 0 0 1 0 0 2 2 2 2 5 8 9 9 10 5 4 3 2 3 4 4
8 10 11 8 8 9 9 10 10 8 8 10 8 6 8 8 9 9 9 8 7 7 7 7 7 6 6 6 7 7 7 6 6 5 5 5 5 4 3 3 2 1 0 1 0 0 1 2 1 3 3 5 7 8 9 10 6 3 1 3 4 4
10 9 6 6 7 8 9 11 11 9 10 9 7 8 8 9 8 9 9 9 8 8 7 7 6 5 5 6 6 6 7 6 5 5 5 5 5 4 4 3 3 2 1 1 1 1 2 2 2 2 4 3 5 8 9 10 11 7 3 2 3 2
11 8 6 5 7 6 8 7 11 10 11 8 8 9 10 9 9 9 9 8 8 7 6 6 5 5 4 4 5 5 5 5 5 4 3 4 3 3 3 3 3 3 1 1 2 2 2 3 3 3 4 6 6 9 10 11 12 12 6 2 1 1
7 9 10 6 6 7 6 7 9 14 10 8 8 8 9 10 10 9 8 8 7 7 7 7 6 5 5 4 4 4 5 5 4 4 4 3 3 3 3 3 3 3 2 3 3 3 3 3 4 3 3 5 7 7 10 11 11 11 8 5 3 6
9 10 10 9 5 6 5 6 4 5 7 8 7 7 8 8 9 9 8 8 7 7 7 7 6 5 5 4 4 4 4 4 4 4 4 4 4 3 3 3 3 3 4 4 4 3 3 3 4 4 4 5 5 4 4 6 7 8 8 6 5 5
11 11 10 10 7 5 4 4 4 5 6 6 7 7 8 8 9 9 9 8 7 7 7 7 8 7 5 5 5 5 5 4 5 5 5 6 5 5 4 4 4 4 4 4 3 3 3 3 3 4 5 4 5 6 5 5 5 6 6 6 5 5
11 11 11 9 6 6 5 5 5 5 6 6 7 8 10 9 8 9 8 8 7 7 7 7 7 7 7 6 5 5 6 7 6 6 5 4 5 6 6 5 5 4 4 6 4 4 4 3 4 5 6 7 8 7 6 5 6 5 5 7 8 5
10 11 10 9 8 7 7 6 5 5 5 6 6 8 10 10 10 9 8 7 7 7 7 7 7 7 7 7 7 6 3 2 6 6 6 4 4 7 6 6 3 6 4 3 3 3 4 4 3 5 7 9 10 11 11 8 8 8 6 8 14 8
9 10 10 10 9 9 8 8 6 6 5 5 6 8 10 10 10 8 7 7 7 7 7 7 7 7 7 7 6 6 6 3 0 2 5 6 5 4 5 5 5 5 4 4 2 3 3 2 1 2 3 6 7 8 9 9 10 11 11 12 8 4
11 12 12 10 10 10 9 8 6 5 5 6 7 8 9 9 10 9 8 7 7 7 7 6 6 7 7 7 6 7 6 6 5 2 4 5 5 5 4 3 4 3 4 4 4 4 1 3 4 3 4 4 6 7 7 8 9 11 12 14 12 6
10 10 11 11 11 11 9 9 5 4 5 5 7 8 9 8 9 9 8 8 8 7 7 7 7 6 6 6 6 6 6 6 6 7 4 0 1 3 5 6 5 5 4 4 4 5 5 5 5 4 5 5 7 7 7 8 10 11 13 13 9 6
10 11 11 12 12 12 10 9 5 4 5 5 6 7 7 8 8 8 8 8 8 8 7 7 6 6 5 4 4 4 4 4 5 6 6 6 2 1 1 2 4 5 4 4 4 5 5 6 6 7 7 7 7 8 9 9 7 11 14 12 8 7
11 10 11 13 13 11 10 9 5 4 5 6 7 9 9 9 8 7 8 10 7 6 6 6 6 6 5 5 5 5 5 5 4 4 4 5 4 2 1 1 1 2 4 2 1 2 4 5 6 7 7 8 8 8 9 9 4 5 6 7 6 6
11 11 11 11 11 11 11 8 4 4 5 7 9 10 9 9 8 8 7 6 8 7 7 7 6 6 6 5 6 5 5 5 5 5 3 3 2 2 1 1 0 1 3 3 3 3 4 5 5 6 7 7 8 8 7 4 4 3 5 5 6 6
Wind_Direction
182 180 181 172 154 152 158 148 141 154 175 185 183 199 199 197 201 201 206 199 205 209 219 219 223 219 219 220 219 217 222 227 228 228 228 220 204 198 194 194 192 192 196 200 207 206 209 209 204 195 193 190 193 192 192 188 181 180 179 176 173 172
190 177 165 162 152 140 134 132 133 152 167 159 184 199 190 192 193 191 200 208 203 213 211 218 211 214 214 213 211 216 221 225 225 227 224 212 196 197 189 189 194 192 194 199 204 207 208 209 208 201 199 197 199 194 190 184 180 182 181 181 180 172
162 159 145 135 115 104 111 124 150 156 126 143 171 174 170 178 200 191 207 200 208 200 207 211 213 221 218 224 222 220 222 221 220 223 208 188 204 189 192 192 194 194 199 200 203 204 206 207 207 201 197 197 196 190 180 171 173 171 166 151 146 146
149 128 108 111 115 116 118 131 128 134 150 172 178 187 191 195 212 210 223 228 222 217 219 225 231 233 247 256 270 263 265 264 258 242 230 195 222 185 188 195 196 199 207 214 212 212 211 209 205 196 192 193 190 187 177 171 164 156 156 155 157 160
154 153 149 148 152 157 157 166 164 168 171 169 176 180 210 189 199 204 219 233 250 262 267 255 253 260 268 282 290 289 281 281 280 277 224 223 202 198 198 191 189 199 215 228 225 220 217 211 205 196 194 192 182 173 173 173 169 165 167 173 173 169
124 129 140 147 154 160 171 174 176 173 175 175 171 183 196 178 157 162 179 208 239 261 272 269 260 237 247 251 262 267 272 270 258 242 233 228 218 207 214 209 205 203 208 216 219 218 215 212 206 198 200 194 185 181 180 177 170 166 170 169 166 165
144 166 172 173 176 178 173 175 182 179 180 174 179 181 184 167 162 156 173 170 212 248 247 267 289 264 260 252 266 270 276 269 258 242 230 229 233 224 215 216 205 209 210 213 213 213 213 210 199 194 196 191 181 180 176 174 170 172 176 179 177 175
178 180 185 183 179 180 180 181 182 184 182 186 173 166 159 161 157 189 195 200 212 240 251 272 298 297 294 282 278 271 278 281 271 264 260 234 229 221 215 212 215 206 209 210 213 210 211 206 199 196 193 186 182 184 181 179 177 176 172 171 175 177
185 194 189 187 182 177 178 180 186 185 182 172 162 152 156 174 186 197 197 200 199 211 222 219 223 234 244 244 252 274 278 270 256 245 251 239 227 222 222 222 218 218 211 215 210 209 205 200 199 202 197 185 177 172 170 173 170 166 165 163 158 161
193 194 193 184 188 183 184 188 185 181 177 179 170 165 175 184 183 187 195 201 205 209 212 207 206 212 216 220 219 221 225 235 241 242 244 229 233 227 220 219 216 227 218 224 209 204 189 183 186 190 185 182 172 167 172 174 167 159 158 162 167 170
199 197 193 192 180 186 193 190 186 172 180 185 178 171 179 178 180 187 193 203 211 207 198 200 201 201 203 210 222 229 236 237 240 252 257 245 263 268 268 261 232 208 214 179 168 153 152 174 190 184 174 162 169 176 175 175 176 168 159 161 163 169
197 196 183 180 187 190 192 193 190 190 188 193 184 174 172 162 187 192 201 209 209 197 189 191 175 172 180 188 218 240 261 301 356 27 1 318 293 289 141 152 145 171 183 172 160 164 172 188 190 186 178 181 175 172 167 161 168 162 158 159 159 164
202 187 181 191 191 195 194 193 190 191 196 191 183 178 170 163 182 194 201 210 193 186 180 160 150 131 160 250 20 41 46 36 45 52 64 47 54 179 188 149 165 191 188 187 185 189 200 201 198 185 182 181 174 166 165 168 169 162 161 167 166 174
201 190 194 198 198 194 189 187 185 179 200 187 186 178 166 170 185 192 200 195 180 173 158 149 139 141 140 101 84 76 74 85 80 64 82 130 202 335 80 189 217 207 202 195 197 200 210 214 197 181 188 185 178 172 169 166 166 168 172 173 177 176
201 196 202 195 190 193 199 179 170 194 190 184 185 159 168 177 182 189 191 185 172 167 154 150 150 151 150 146 135 131 110 112 124 128 126 115 72 115 153 252 169 216 226 199 207 223 226 230 195 186 187 182 174 167 157 163 170 175 183 179 178 174
216 211 201 194 193 191 184 180 186 193 180 168 154 159 168 167 182 184 187 176 178 170 166 160 156 164 164 149 140 133 131 132 141 147 143 128 113 138 162 179 202 188 199 210 225 246 269 245 221 199 190 182 178 177 173 180 183 184 180 181 177 174
212 215 209 198 186 175 164 185 178 154 147 152 154 162 161 172 172 186 185 183 181 172 171 167 166 165 158 152 146 142 145 145 137 142 149 150 160 162 179 190 198 208 196 210 201 198 223 247 194 205 200 197 192 186 171 156 156 168 179 182 180 177
203 201 208 194 158 176 180 181 163 150 160 150 155 161 165 165 174 184 184 190 188 181 176 169 168 163 154 152 151 151 156 157 161 161 158 148 153 149 144 159 169 191 196 181 162 175 216 209 177 193 194 189 189 178 164 167 177 182 183 186 183 176
200 203 185 168 184 176 193 166 157 150 148 155 163 162 167 166 181 190 189 191 183 179 171 167 162 162 157 156 154 164 169 169 162 158 150 147 152 153 159 169 146 154 173 186 188 202 229 218 192 191 190 189 186 173 185 183 189 190 191 198 186 177
191 178 171 183 189 189 163 157 158 155 158 168 166 165 173 177 197 189 185 186 178 171 163 160 160 161 160 158 169 174 171 156 159 169 163 163 161 170 170 144 133 115 137 162 204 221 255 270 176 210 207 198 192 184 187 189 194 210 203 187 157 161
189 182 173 169 181 191 166 159 157 156 172 176 176 173 178 197 196 181 181 179 169 165 161 161 162 161 160 165 175 171 168 175 170 151 150 148 143 155 144 141 148 135 134 155 177 193 222 255 165 188 205 202 202 194 195 188 193 203 208 172 173 174
122 141 169 179 197 172 159 156 159 172 176 183 169 177 198 202 184 165 157 164 166 162 157 157 160 161 163 170 164 166 168 148 138 151 150 144 137 135 123 129 136 163 184 120 153 264 263 285 264 199 210 210 209 203 197 194 188 209 199 185 184 187
177 180 187 193 173 161 161 157 158 181 188 171 172 200 200 172 153 152 156 154 153 156 159 160 161 159 164 163 163 155 143 152 150 143 144 142 127 120 117 122 122 123 125 78 89 169 292 257 264 245 222 226 222 215 205 215 215 212 194 195 196 199
190 184 188 177 166 167 164 162 170 181 170 171 198 200 163 151 147 147 149 149 152 153 152 149 149 152 154 152 143 145 146 146 144 148 146 145 142 141 132 119 118 107 18 28 64 357 316 298 251 259 239 235 232 228 221 229 252 258 222 214 219 216
185 194 191 176 166 163 165 161 170 174 171 187 197 168 152 146 148 146 145 146 147 150 149 147 149 151 151 155 156 150 149 147 142 143 144 145 138 136 131 121 112 103 42 33 70 155 244 261 253 219 238 243 240 238 235 235 245 298 285 249 246 239
192 186 172 164 160 164 166 168 171 172 175 190 173 153 144 144 144 142 142 147 147 146 146 146 146 145 150 153 149 145 141 143 138 136 147 144 142 142 139 135 132 131 147 227 247 220 213 217 205 203 210 212 228 236 239 241 241 247 281 246 245 251
179 163 154 165 160 163 169 175 168 169 178 182 159 154 150 145 143 140 141 142 142 141 139 129 130 133 135 139 139 134 132 129 133 129 132 131 130 131 132 126 130 141 149 178 222 226 209 195 193 187 178 193 200 215 218 224 223 225 226 207 203 145
148 156 162 163 165 162 172 179 170 171 180 159 159 153 146 142 138 136 134 131 129 132 129 125 122 122 124 127 125 127 134 138 139 128 127 126 125 127 133 132 136 150 171 211 222 230 221 197 184 187 172 181 202 209 215 214 217 217 209 163 160 149
159 170 168 166 170 163 169 165 168 151 141 157 146 140 136 133 129 126 126 126 124 122 124 126 126 123 118 117 110 109 117 125 132 127 131 149 150 153 157 166 170 180 196 220 229 227 223 205 191 190 197 192 192 200 198 206 214 211 202 190 157 139
173 170 166 166 164 150 138 126 124 127 127 125 131 134 129 125 130 132 130 127 127 129 132 130 129 130 131 135 138 137 139 149 153 152 162 169 173 170 183 185 192 197 202 217 220 224 237 235 213 208 207 210 192 200 195 196 197 200 202 193 175 159
170 168 159 147 140 132 122 106 97 108 118 128 136 138 128 124 118 118 121 125 125 133 134 134 141 143 144 150 146 156 164 164 168 167 170 182 178 180 179 185 193 193 198 190 195 198 222 231 230 236 207 201 194 191 194 200 205 201 199 191 163 135
155 148 141 131 131 131 125 115 104 100 121 132 135 132 126 125 121 120 123 127 132 136 134 137 140 141 147 152 151 130 85 102 151 166 157 174 145 130 132 138 159 164 148 150 218 183 190 211 221 227 204 204 200 203 198 201 196 192 186 182 174 162
131 127 125 134 135 135 131 119 111 113 122 128 124 124 125 127 124 122 126 130 140 144 141 141 138 141 145 153 151 149 146 142 53 143 144 143 140 129 119 121 137 159 175 151 232 313 3 326 266 198 206 216 215 210 211 192 187 184 182 179 159 181
142 143 140 138 135 130 125 115 114 120 124 125 127 129 129 131 132 137 143 138 142 138 136 142 144 143 142 147 149 151 150 147 154 217 244 199 193 185 179 165 167 164 177 195 190 195 271 275 277 235 212 210 214 208 191 190 188 187 188 188 177 194
141 133 132 132 130 125 122 117 116 115 114 119 128 133 128 131 131 135 136 136 139 137 136 140 146 150 147 150 149 152 150 153 153 154 166 323 282 203 200 203 205 212 215 226 235 231 235 244 252 245 237 225 218 207 200 201 204 200 201 195 198 209
130 132 132 130 129 128 124 119 123 123 126 121 121 115 112 115 122 127 134 142 142 136 137 140 143 139 139 135 135 137 140 136 134 131 130 140 117 41 324 255 232 230 231 232 235 247 258 266 267 266 255 241 222 217 214 215 216 222 214 204 208 212
125 125 129 129 127 125 122 121 131 136 123 116 114 105 98 98 103 106 113 119 122 123 123 122 117 117 115 119 122 127 124 124 116 118 128 133 136 128 105 347 337 279 210 206 259 276 283 282 279 276 273 266 247 243 237 238 230 230 247 240 232 224
125 126 130 128 125 124 120 117 130 128 120 112 108 102 102 104 104 104 101 99 104 102 100 102 104 107 115 119 120 120 118 117 116 120 119 109 113 117 100 1 348 29 305 228 243 263 282 289 292 286 284 278 270 259 252 235 238 236 238 239 248 246